Location: *
(51.0333°S, 178.4667°E)
Time: 22:00:14
(UTC+00:00)

Meteor 1-11 Rocket - Pass Details

Date: 15 November 2019
Orbit: 832 x 915 km, 81.2° (Epoch: 12 December)

Event Time Altitude Azimuth Distance (km) Brightness Sun altitude
Exits shadow 10:17:35 16° 338° (NNW) 2,188 5.4 -17.6°
Maximum altitude 10:22:24 71° 256° (WSW) 969 4.1 -17.9°
Drops below altitude 10° 10:28:22 10° 171° (S) 2,604 7.1 -18.2°
Sets 10:30:50 0° 168° (SSE) 3,538 7.9 -18.3°
